Location: Unspecified
(51.5147°N, 7.4673°E)
Time: 05:37:54
(UTC+01:00)

A-11 Canister half - Pass Details

Date: 19 February 2026
Orbit: 1524 x 1683 km, 47.3° (Epoch: 14 March)

Event Time Altitude Azimuth Distance (km) Brightness Sun altitude
Rises 19:46:10 0° 267° (W) 4,693 13.2 -18.3°
Reaches altitude 10° 19:49:14 10° 266° (W) 3,701 12.2 -18.8°
Maximum altitude 19:58:26 68° 186° (S) 1,620 9.0 -20.2°
Enters shadow 20:03:32 30° 112° (ESE) 2,469 9.5 -21.0°
